Regional Weather Roundup
Issued by NWS

Home | Current Version | Previous Version | Graphics & Text | Print | Product List | Glossary On
Versions: 1 2 3 4 5 6 7 8 9 10 11 12 13 14 15 16 17 18 19 20 21 22 23 24 25 26 27 28 29 30 31 32 33 34 35 36 37 38 39 40 41 42 43 44 45 46 47 48 49 50
413
ASUS44 KMEG 292310
RWRTN
TENNESSEE HOURLY STATE WEATHER ROUNDUP
NATIONAL WEATHER SERVICE MEMPHIS TN
600 PM CDT MON MAY 29 2017

TNZ002-004-019-021-049-052-054-088>092-300000-
WEST TENNESSEE

CITY           SKY/WX    TMP DP  RH WIND       PRES   REMARKS
MEMPHIS INTL   CLOUDY    83  58  42 NW5       29.97S
NWS MEMPHIS      N/A     83 N/A N/A MISG        N/A
JACKSON        CLOUDY    82  57  42 CALM      29.97S
DYERSBURG        N/A    N/A N/A N/A MISG        N/A
SOMERVILLE     SUNNY     81  66  61 CALM      29.97S
COVINGTON      SUNNY     82  59  44 NW6       29.97S
UNION CITY     SUNNY     82  55  39 SW6       29.94F
BOLIVAR        SUNNY     79  66  65 SE3       29.97S
PARIS          SUNNY     81  57  44 SW6       29.95S
HUNTINGDON     SUNNY     82  61  47 SW6       29.95F
LEXINGTON      MOSUNNY   79  66  65 S3        29.97S
SELMER         SUNNY     77  70  78 CALM      29.98S
SAVANNAH       SUNNY     75  70  83 CALM      29.97F
$$

TNZ008-025-027-028-033-062-065-066-300000-
NORTH MIDDLE TENNESSEE

CITY           SKY/WX    TMP DP  RH WIND       PRES   REMARKS
NASHVILLE      CLOUDY    79  60  52 SW5       29.98S
PORTLAND       SUNNY     79  61  53 SW8       29.97S
CLARKSVILLE    MOSUNNY   80  57  45 SW7       29.96S
SMYRNA         CLOUDY    77  67  71 S5        29.99S
COOKEVILLE     SUNNY     73  66  78 SW6       29.99F
GALLATIN       SUNNY     77  64  65 S5        30.00S
CROSSVILLE     CLOUDY    69  63  81 CALM      30.05S
$$

TNZ061-075-076-078-094-096-097-300000-
SOUTH MIDDLE TENNESSEE

CITY           SKY/WX    TMP DP  RH WIND       PRES   REMARKS
FAYETTEVILLE   PTSUNNY   70  66  88 NW3       30.01S
TULLAHOMA      MOSUNNY   70  66  88 CALM      30.03S
WINCHESTER     SUNNY     70  66  88 CALM        N/A
MCMINNVILLE    MOSUNNY   73  68  83 SW5       30.01S
COLUMBIA       SUNNY     75  68  78 S5        29.98S
SHELBYVILLE    MOSUNNY   72  68  88 CALM      30.01R
$$

TNZ017-018-042-046-047-300000-
NORTHEAST TENNESSEE

CITY           SKY/WX    TMP DP  RH WIND       PRES   REMARKS
TRI CITIES     LGT RAIN  73  64  73 SW8       30.03R
ELIZABETHTON   PTSUNNY   73  61  64 NW5       30.03R
$$

TNZ012-013-036-069-073-074-300000-
CENTRAL EAST TENNESSEE

CITY           SKY/WX    TMP DP  RH WIND       PRES   REMARKS
KNOXVILLE      RAIN      73  66  78 NW3       30.00S
OAK RIDGE      CLOUDY    74  62  66 VRB3      30.02S
DOWNTOWN KNOXV SUNNY     73  64  73 CALM      30.01S
GATLINBURG     MOSUNNY   73  61  64 W3        30.01S
MORRISTOWN     MOSUNNY   73  63  68 SW7       30.02S
JACKSBORO      SUNNY     73  64  73 CALM      30.04R
$$

TNZ083-085-099-300000-
SOUTHEAST TENNESSEE

CITY           SKY/WX    TMP DP  RH WIND       PRES   REMARKS
CHATTANOOGA    TSTM      68  66  93 CALM      30.01R FOG
$$

SKY/WX REPORTED AS FAIR MEANS FEW OR NO CLOUDS BELOW
12 THOUSAND FEET.





USA.gov is the U.S. government's official web portal to all federal, state and local government web resources and services.